GFSFLT1_925_thetae_000.txt.gz
Theta_e
316 322 324 325 328 329 327 326 324 322 321 318 310 312 312 312 311 310 310 310 309 307 306 306 305 305 303 302 300 299 299 299
315 318 323 326 327 327 326 325 322 314 312 314 313 313 311 310 309 308 307 306 306 305 304 303 302 301 300 299 298 298 298 300
312 313 317 323 325 325 318 316 314 314 315 315 314 312 310 308 306 305 304 303 302 302 300 299 299 298 298 298 297 296 299 300
311 310 312 313 314 314 313 312 312 311 310 310 310 310 310 308 306 304 303 302 301 300 300 301 300 298 298 298 297 296 298 298
309 309 309 310 310 310 311 311 311 310 310 310 310 309 308 305 304 301 302 302 302 303 303 302 300 299 298 297 297 297 297 296
310 310 310 310 310 311 310 310 310 309 309 308 308 307 304 303 302 304 304 303 302 302 302 301 300 299 298 297 296 296 294 292
310 311 311 310 310 310 310 310 309 308 307 306 305 305 304 303 303 303 303 302 302 301 301 300 299 297 296 295 293 291 290 289
310 309 309 309 309 309 309 307 305 303 303 302 302 302 302 302 302 302 301 301 301 300 300 299 297 294 293 293 291 289 288 288
307 307 307 307 306 306 305 303 301 302 302 301 301 300 300 300 300 300 300 300 300 299 299 297 294 296 294 292 290 288 288 288
305 305 305 305 306 305 304 303 300 298 296 295 295 294 292 291 291 292 292 295 299 299 297 295 295 293 293 291 290 289 288 288
303 303 303 304 304 305 303 298 295 295 295 294 293 292 291 290 289 290 292 297 298 297 296 294 293 292 292 291 290 289 289 289
301 301 301 301 301 300 297 296 296 295 294 293 293 292 291 291 291 290 294 297 296 296 295 294 293 291 290 290 289 289 288 288
301 300 297 296 296 296 296 295 295 294 293 293 292 292 292 291 291 291 293 295 295 295 293 292 292 291 289 288 288 288 288 287
300 299 295 295 295 296 295 294 294 293 293 293 292 292 292 291 291 292 293 293 292 292 293 292 289 289 288 288 288 288 287 285
298 297 295 295 295 295 295 294 294 293 292 292 292 292 292 291 291 291 292 292 293 292 290 290 289 288 288 288 287 286 286 285
298 295 294 295 295 295 294 294 293 292 292 292 292 292 291 291 291 291 292 292 292 292 291 288 289 288 287 287 286 285 285 284
299 295 294 294 295 294 294 293 293 292 292 292 292 292 291 291 291 291 291 293 290 289 288 289 287 287 286 286 285 284 284 284
298 296 294 294 294 294 293 293 292 292 292 292 292 292 291 291 291 291 292 292 292 291 290 287 287 286 285 283 282 281 281 280
297 297 295 293 293 293 293 292 292 291 292 292 292 291 291 290 291 291 291 292 291 291 288 286 285 284 282 281 280 279 278 277

GFSFLT1_925_thetae_003.txt.gz
Theta_e
320 323 325 328 327 325 324 323 321 323 321 321 315 309 309 308 307 307 307 307 307 306 305 304 303 302 301 300 299 300 301 301
320 322 325 326 326 325 324 323 323 322 319 311 311 311 309 307 307 308 307 305 304 303 301 300 299 299 300 299 298 299 300 300
319 322 327 328 327 327 325 324 321 315 312 313 313 311 309 307 306 305 304 302 301 300 302 303 303 302 300 299 298 299 300 299
319 322 324 323 324 324 323 319 312 312 311 309 309 308 308 306 304 303 302 302 303 303 302 302 302 302 301 299 299 299 299 299
314 314 315 316 313 313 312 310 309 308 308 307 307 307 306 304 302 303 304 303 302 302 301 301 302 300 300 299 298 297 296 295
311 309 309 308 308 308 308 308 307 306 306 306 305 303 303 303 303 303 303 303 301 301 301 301 301 299 298 297 296 294 293 292
312 311 310 308 308 307 308 308 305 304 303 301 301 301 301 301 301 301 302 301 301 301 300 300 300 299 297 294 291 291 290 290
313 312 311 308 307 306 304 303 301 301 301 301 300 298 297 297 296 297 296 298 298 299 299 300 299 295 294 293 292 290 290 289
314 310 307 305 304 303 302 302 300 299 296 294 293 291 291 290 289 289 290 293 293 295 298 298 295 294 293 293 293 291 289 289
311 308 306 304 303 302 303 300 295 294 294 294 293 292 292 291 291 291 290 291 295 298 298 296 295 294 295 293 292 291 290 290
309 306 305 305 303 300 296 295 296 295 294 294 294 293 293 292 292 291 291 293 296 298 296 295 295 294 293 291 291 291 289 290
306 304 304 304 300 296 296 296 295 295 294 294 294 293 293 292 292 291 291 293 295 296 295 294 293 292 291 290 289 289 288 289
304 301 300 298 296 295 297 296 295 294 293 293 293 293 292 292 291 291 291 293 293 293 293 293 293 291 289 289 289 288 288 288
302 298 297 296 296 296 296 296 295 293 293 293 293 292 292 291 291 291 291 292 292 292 292 292 290 289 288 288 288 288 287 287
302 298 296 296 296 297 298 296 293 293 292 293 292 292 292 291 291 291 291 291 292 292 292 291 290 288 288 288 287 287 286 285
301 298 296 296 295 296 296 294 293 292 292 292 292 292 292 291 291 291 291 291 292 291 290 287 288 287 287 287 286 286 286 285
301 298 296 295 295 295 294 293 292 292 292 292 292 292 292 291 291 290 291 292 292 291 290 289 288 287 286 285 284 284 282 281
301 299 296 295 295 295 293 292 292 292 291 291 291 292 292 291 291 290 291 292 292 291 290 288 287 286 284 283 282 281 280 280
301 299 296 294 293 293 293 292 292 291 291 291 292 292 291 291 291 290 291 291 290 290 289 288 286 283 282 281 280 280 279 279

GFSFLT1_925_thetae_006.txt.gz
Theta_e
327 324 326 328 330 329 327 325 322 324 324 321 317 314 312 311 309 309 309 309 309 310 310 309 307 306 306 305 305 305 305 305
327 329 328 329 330 329 327 326 325 325 322 321 318 317 314 310 309 308 308 307 307 307 307 307 307 307 307 306 305 304 304 304
328 329 329 329 328 327 327 326 325 321 320 318 318 317 313 309 308 307 307 306 306 306 307 307 306 306 306 306 304 302 302 302
331 330 330 330 329 328 327 324 319 317 316 315 313 312 311 311 309 308 307 306 306 305 306 305 305 305 304 304 303 302 301 300
331 331 331 330 329 326 321 317 315 312 311 312 312 311 311 308 307 307 307 306 306 305 305 304 304 303 302 303 301 300 298 298
327 325 324 320 317 316 314 312 310 310 310 310 310 309 307 307 306 305 305 304 304 303 303 302 302 301 302 302 300 298 297 296
319 318 315 314 313 312 311 310 309 308 308 307 307 306 304 302 299 299 297 296 296 297 298 301 302 302 302 300 297 297 295 294
316 314 313 313 313 312 310 309 307 307 306 304 301 299 298 297 296 295 295 295 295 295 296 298 301 302 299 297 296 296 294 293
317 315 315 313 312 310 309 308 307 304 301 298 297 297 297 296 296 296 295 295 296 297 299 301 301 299 297 297 297 295 293 292
318 316 314 312 310 309 309 305 302 299 299 298 298 297 297 297 296 296 295 295 296 297 300 300 299 297 297 296 295 294 293 291
318 314 312 310 310 307 304 302 301 298 298 298 297 297 297 297 296 295 294 294 295 297 298 299 297 297 296 295 293 292 291 290
317 313 311 310 308 304 302 301 299 298 298 298 298 297 297 296 295 294 294 294 294 295 297 297 296 295 294 294 292 291 290 290
316 312 311 309 305 302 301 300 299 298 297 297 297 297 296 296 295 294 294 294 294 294 295 295 295 294 294 292 291 291 291 290
313 311 309 306 303 301 300 300 299 297 296 297 297 296 296 295 295 294 294 294 294 294 294 294 293 292 291 291 291 291 290 289
312 309 306 304 302 301 302 299 298 296 296 296 296 296 296 295 294 294 293 293 294 294 294 294 293 291 290 290 290 290 289 289
310 308 306 304 302 302 301 299 297 296 296 296 296 295 295 295 294 293 293 293 294 294 293 291 291 290 289 289 290 289 289 287
310 308 306 304 302 302 300 298 297 296 296 296 295 295 295 295 294 293 293 293 293 294 293 292 292 289 288 286 286 286 286 285
310 309 306 303 301 301 299 297 296 295 295 295 294 294 294 294 293 293 293 293 293 293 293 292 291 290 285 284 283 284 285 284
311 309 306 301 301 300 298 296 295 295 294 294 294 294 293 293 293 293 293 293 292 291 291 291 291 287 283 282 282 284 283 282

GFSFLT1_925_thetae_009.txt.gz
Theta_e
328 326 325 328 330 329 329 328 326 325 327 323 320 318 316 315 313 313 313 312 312 313 312 311 310 310 310 310 310 309 308 308
330 327 327 329 331 330 330 328 327 328 325 322 320 319 317 314 313 312 311 311 310 310 310 310 310 310 309 309 309 308 307 304
329 330 329 330 331 331 330 329 328 324 322 320 320 319 316 313 312 311 310 310 310 309 309 309 309 308 307 307 307 306 303 302
332 331 331 331 331 330 329 327 324 321 320 318 316 315 314 314 313 311 310 310 309 308 307 307 307 306 304 303 303 304 302 301
333 332 331 330 330 329 326 323 320 318 315 315 316 315 314 312 311 310 309 307 306 304 303 303 303 304 303 302 303 302 301 300
333 332 332 330 328 326 322 319 315 314 314 314 313 312 311 309 306 303 301 300 299 298 298 298 299 302 303 303 303 302 300 299
330 328 328 325 323 320 317 314 313 313 313 312 311 307 304 303 301 299 298 298 298 298 298 298 299 300 302 302 302 300 299 298
325 324 320 319 317 316 315 313 312 312 310 307 304 302 301 300 299 298 298 298 297 297 298 299 300 300 301 301 299 299 298 296
322 320 317 317 316 315 313 313 312 309 304 303 302 300 300 300 299 298 297 297 297 297 298 300 300 300 299 299 299 298 297 295
319 318 317 317 316 315 313 312 310 305 303 303 301 300 300 300 299 298 296 296 296 296 298 299 300 299 299 299 297 296 295 294
320 318 318 317 316 314 313 310 306 304 303 301 301 300 300 299 298 297 296 296 296 296 296 297 298 298 298 296 295 295 294 293
320 319 318 316 314 314 310 307 305 304 302 301 300 300 300 299 298 297 296 295 295 295 295 296 296 296 295 295 295 295 293 293
321 319 317 315 314 311 308 306 305 303 302 300 300 300 299 298 297 296 296 295 295 295 295 295 295 295 294 294 293 293 292 292
321 319 317 315 313 309 307 305 304 302 300 300 300 300 299 298 297 296 295 295 295 295 295 295 294 295 294 293 292 292 292 292
321 320 316 315 312 308 306 305 303 301 300 300 300 299 299 298 297 296 295 294 294 295 295 294 294 293 292 292 292 291 291 291
321 318 316 314 311 307 306 305 302 300 300 299 299 299 298 297 297 296 295 294 294 294 294 294 294 293 292 290 291 291 290 289
319 317 315 312 310 307 306 304 301 300 299 299 299 298 297 296 296 295 295 294 294 294 294 294 294 293 291 290 286 287 288 288
317 316 313 311 309 307 306 303 301 299 299 298 298 297 296 296 295 294 294 294 294 294 293 293 294 293 291 287 285 285 287 287
316 314 312 311 309 306 305 301 300 299 298 297 297 296 295 295 294 294 294 294 294 293 293 292 292 291 289 286 283 285 287 286

GFSFLT1_925_thetae_012.txt.gz
Theta_e
325 324 327 330 329 329 331 330 329 323 326 323 322 318 317 315 314 314 313 312 312 312 312 311 311 311 310 309 309 310 309 308
327 325 327 331 330 329 330 329 327 325 326 321 319 317 316 314 313 312 311 311 310 310 310 310 310 309 308 307 307 307 307 305
330 328 327 330 331 331 330 328 328 328 324 322 321 318 315 313 313 311 311 311 310 309 309 308 307 307 307 306 304 304 305 304
331 329 330 331 332 332 330 329 328 323 321 320 317 315 314 314 313 312 311 310 308 307 304 303 303 304 305 304 303 304 303 302
331 332 331 333 332 331 330 328 322 320 318 317 315 315 313 312 311 308 306 302 301 299 298 298 298 299 301 303 303 303 303 301
332 332 332 331 330 330 327 322 318 316 316 316 314 312 311 308 303 302 300 299 298 298 298 299 299 299 299 301 303 303 301 300
332 332 330 330 330 326 321 318 315 315 315 313 311 307 304 303 301 300 299 299 298 298 298 299 300 300 301 303 302 300 299 299
332 332 331 329 325 321 317 315 314 314 312 307 304 303 302 301 300 299 299 298 298 298 297 299 300 301 301 301 300 299 299 298
331 329 327 324 321 318 316 314 314 312 306 304 303 302 301 301 300 299 298 298 297 296 297 298 299 301 299 299 299 298 298 297
327 325 321 320 318 317 315 314 313 308 304 304 303 301 301 300 300 299 297 297 297 296 296 297 298 300 298 299 298 298 297 295
323 321 319 318 318 317 315 314 312 306 305 304 302 302 301 300 299 298 297 297 296 296 296 296 296 297 299 298 297 296 295 295
321 319 319 318 318 316 315 314 309 306 305 303 302 301 301 300 299 298 297 296 296 296 296 296 296 296 295 295 295 294 295 294
321 320 319 319 318 316 315 313 308 306 305 303 301 301 301 300 299 298 297 296 296 295 295 295 295 295 295 295 294 293 293 293
322 321 320 319 317 316 314 311 308 306 304 302 302 301 301 300 299 298 297 296 295 295 295 295 295 294 295 294 294 292 292 292
322 321 321 318 317 315 313 310 307 306 303 302 301 301 300 300 299 298 297 296 295 295 295 295 295 294 293 293 292 292 291 291
322 322 321 318 316 315 312 309 307 305 302 301 301 300 300 299 298 297 297 295 295 295 294 295 295 295 294 292 290 290 289 289
321 322 321 318 317 315 311 308 306 303 301 301 300 300 299 298 297 297 296 296 295 294 294 294 294 295 293 292 290 288 287 288
319 320 320 318 316 314 311 308 306 302 301 300 299 299 297 298 296 296 296 295 295 295 294 294 293 294 293 292 290 287 286 287
318 318 317 316 315 313 310 308 305 302 300 299 298 298 297 296 296 295 295 295 295 295 294 293 293 292 292 291 288 286 286 287

GFSFLT1_925_thetae_015.txt.gz
Theta_e
325 329 328 327 327 329 331 329 327 324 324 323 319 315 315 314 313 314 312 311 311 311 311 311 310 309 309 308 306 307 306 305
324 328 327 328 329 331 330 328 323 325 323 320 318 316 314 313 313 312 311 310 310 310 309 309 308 308 307 306 305 303 302 304
323 326 328 328 329 330 330 329 327 326 322 319 317 315 314 313 312 311 310 310 309 308 306 305 304 304 304 305 304 303 303 303
325 325 329 328 329 329 329 328 326 325 326 320 318 314 313 312 311 311 309 306 305 302 299 298 298 298 300 301 303 303 303 302
326 326 329 329 329 329 329 328 328 324 320 318 315 313 313 312 309 304 303 302 301 299 298 298 298 298 298 298 301 303 302 300
326 327 331 331 331 331 330 327 320 319 317 315 315 313 309 304 304 302 301 299 298 298 298 298 297 299 301 302 302 302 300 299
327 330 332 331 331 330 325 320 316 316 315 313 313 310 306 305 301 300 299 299 298 298 298 297 299 300 302 301 300 299 299 298
329 328 328 330 329 321 318 316 315 315 314 311 308 306 305 303 301 300 298 298 298 297 297 297 298 300 300 299 299 298 298 297
328 329 329 325 321 317 315 315 314 314 312 309 306 303 303 302 300 299 298 298 297 297 296 296 297 300 299 298 298 297 297 297
330 328 324 320 318 316 315 314 313 312 309 306 303 302 301 300 300 298 297 297 297 296 296 296 296 296 299 298 298 297 297 296
323 322 320 319 319 317 315 314 313 308 304 303 302 301 301 300 299 298 297 297 296 296 296 295 295 295 296 297 297 296 294 295
319 318 318 318 318 317 316 313 312 306 304 304 303 301 300 300 299 298 297 297 296 296 295 295 295 295 295 295 294 294 293 293
317 316 316 316 317 317 315 314 311 306 304 304 302 301 301 300 299 298 297 296 296 295 295 295 295 295 295 294 294 294 293 292
316 314 316 316 316 315 315 314 309 305 305 304 302 301 301 300 299 298 297 297 296 295 294 295 295 295 294 293 293 292 292 292
316 316 315 316 316 315 314 314 307 306 305 303 302 302 301 301 299 298 297 297 296 295 294 294 295 295 294 293 293 291 290 290
317 315 314 316 315 314 314 313 308 306 304 303 302 301 301 300 298 298 297 297 296 295 294 294 294 295 294 294 293 292 289 288
314 318 316 315 314 314 313 311 308 306 304 302 301 301 300 298 297 297 296 296 296 296 295 294 294 294 294 294 293 291 289 287
314 315 316 315 315 315 313 310 307 305 303 301 299 299 298 297 298 296 295 296 296 295 295 294 294 293 293 293 292 291 288 286
313 314 316 317 317 315 314 309 306 303 301 298 297 298 298 297 295 296 296 295 294 294 294 295 294 293 293 292 291 290 287 286

GFSFLT1_925_thetae_021.txt.gz
Theta_e
328 329 331 331 330 330 329 330 329 327 325 325 325 325 324 323 321 318 315 314 313 312 311 310 310 308 307 305 304 303 303 302
330 331 330 331 330 330 328 327 327 324 322 322 322 319 315 314 313 313 312 312 312 311 310 309 307 305 303 303 303 303 302 302
329 328 327 329 330 327 329 328 326 323 322 322 319 314 313 312 312 310 310 310 310 309 308 306 304 302 300 301 301 302 302 301
328 327 326 326 326 327 328 328 326 323 322 320 315 313 313 311 310 310 310 309 309 306 303 301 299 298 297 297 298 302 301 299
327 326 325 324 325 326 327 329 326 324 322 318 315 313 311 310 310 309 308 305 303 301 299 298 297 296 296 298 299 300 301 299
324 326 325 325 325 326 327 328 326 324 322 319 315 313 312 311 310 307 303 301 299 298 298 297 296 296 298 301 301 300 300 299
319 325 325 325 325 327 327 327 325 324 323 320 316 315 312 311 309 305 300 299 298 297 297 296 296 298 299 300 299 297 296 296
319 323 324 325 326 327 327 327 325 324 324 322 318 315 313 311 308 301 298 298 297 297 296 295 295 296 299 299 298 297 296 296
321 324 325 324 325 326 327 327 325 326 325 323 319 315 313 310 305 300 299 298 297 296 296 295 295 298 299 298 298 298 296 296
323 324 325 325 326 326 327 326 323 325 320 319 319 314 312 308 303 299 298 297 296 296 295 294 295 295 295 295 297 298 297 297
324 325 326 326 326 324 323 323 323 324 318 315 312 310 308 305 301 299 298 297 296 296 295 295 295 295 295 295 295 294 294 294
324 325 325 325 324 322 321 319 318 315 313 313 312 309 304 302 300 299 297 296 296 295 295 294 294 294 294 295 295 294 293 293
324 324 321 318 317 317 317 315 314 313 311 310 309 305 302 301 300 298 297 297 297 296 295 295 294 294 294 295 295 294 293 293
321 319 318 317 316 314 314 313 310 308 307 305 304 302 301 300 300 299 298 298 297 296 296 296 295 293 294 295 294 294 293 293
317 317 317 318 317 313 312 311 309 308 306 306 305 302 301 301 300 299 298 298 297 296 296 296 295 294 294 294 294 294 293 293
315 315 313 316 316 316 313 311 310 308 307 307 303 301 301 300 299 299 298 297 296 296 295 296 295 295 294 294 294 294 293 292
314 314 313 313 314 315 315 312 309 307 307 304 302 302 301 300 299 297 296 296 295 295 299 296 295 295 295 295 294 294 293 291
309 309 313 313 313 313 314 312 310 309 305 303 302 302 301 299 297 295 295 296 298 299 296 295 294 293 293 294 294 294 293 291
304 303 305 310 313 312 311 309 306 304 302 301 300 299 297 296 296 297 298 298 298 295 294 293 293 293 293 294 294 293 292 290

GFSFLT1_925_thetae_024.txt.gz
Theta_e
326 326 326 327 327 326 326 328 328 327 326 327 326 328 328 328 326 324 324 320 315 313 311 310 309 309 308 305 303 303 302 302
326 327 326 329 330 329 328 329 328 329 327 327 327 328 326 325 324 322 319 315 313 311 310 309 308 306 303 303 302 302 301 301
327 327 328 330 330 330 328 329 330 329 327 327 326 324 322 320 317 314 313 312 311 310 309 307 303 301 299 299 299 301 301 301
327 328 327 329 330 330 329 328 328 326 325 324 322 319 315 313 312 311 311 310 309 308 305 301 298 297 296 296 297 299 300 298
326 328 326 326 328 329 328 327 326 325 324 322 320 316 312 312 311 310 309 308 306 303 301 298 297 296 296 297 299 300 301 299
324 327 327 326 328 328 328 327 326 325 323 321 319 314 313 312 311 309 307 304 301 300 298 297 296 295 296 298 300 300 299 298
322 326 326 324 326 327 327 326 326 325 323 321 319 316 313 311 309 307 303 301 299 298 297 296 295 297 298 299 299 298 297 296
318 322 324 323 324 325 326 326 325 324 323 321 319 316 313 312 310 307 301 299 298 297 296 295 297 298 297 299 298 297 297 296
318 321 324 324 323 324 325 325 325 325 324 323 320 315 314 312 311 309 304 300 299 297 296 296 298 295 294 297 298 298 297 296
318 318 322 324 324 324 325 325 325 325 325 323 320 318 315 314 311 308 303 300 298 297 295 298 295 294 294 295 296 298 297 297
318 318 322 323 324 324 325 325 325 325 325 323 321 319 317 313 311 306 300 298 298 296 297 295 294 295 294 294 295 295 295 294
319 320 322 323 324 324 325 325 324 323 322 323 319 315 313 311 309 302 299 298 297 296 295 294 294 294 294 294 295 294 294 293
320 321 323 324 324 323 323 321 321 322 322 319 313 311 310 306 303 301 299 298 296 296 295 295 294 294 294 295 294 294 294 293
320 319 319 320 317 319 318 319 320 319 317 314 312 309 308 305 302 300 299 297 297 296 295 295 294 295 296 294 294 294 294 294
318 318 317 316 316 317 316 316 315 313 312 310 308 307 306 303 301 299 297 297 297 296 296 295 295 297 295 294 294 294 294 294
317 316 315 316 317 316 316 314 313 311 308 307 305 305 305 301 300 298 298 297 297 296 295 295 298 298 294 294 294 294 294 294
310 311 311 312 314 316 315 314 312 311 309 307 306 304 302 300 299 298 297 296 296 294 295 298 298 296 295 294 293 294 294 293
304 303 304 307 310 311 312 312 309 306 306 305 305 303 301 299 299 298 296 295 296 298 297 298 296 295 293 293 293 293 293 293
300 299 301 305 309 310 310 308 307 305 303 302 301 300 299 298 296 296 297 298 298 296 297 296 294 294 293 293 292 292 293 293

GFSFLT1_925_thetae_027.txt.gz
Theta_e
326 326 325 325 326 326 325 325 326 328 326 320 321 325 328 327 327 326 323 319 317 314 312 310 309 308 308 307 303 302 303 302
326 326 326 325 325 326 326 326 326 328 326 322 323 325 328 327 326 324 322 319 315 312 310 309 309 308 305 303 302 302 301 300
328 326 326 327 327 327 327 327 327 328 326 325 325 325 326 324 324 322 321 317 313 311 310 309 307 305 301 300 301 302 301 300
330 328 327 327 328 328 328 327 327 327 327 326 326 325 323 318 317 317 315 313 311 310 309 307 303 299 297 296 298 300 301 299
331 329 328 327 327 328 328 327 327 328 328 327 325 323 319 315 315 313 312 311 310 309 306 301 299 297 296 297 298 299 300 300
330 330 329 328 327 327 328 327 326 327 327 325 323 322 319 316 313 311 311 309 308 306 302 299 297 295 297 299 299 299 298 298
327 328 329 329 327 327 328 327 325 324 325 325 323 321 319 314 311 309 308 306 303 301 299 298 296 296 301 303 300 297 297 297
326 326 328 328 327 327 327 327 326 324 324 323 322 320 318 314 312 310 308 306 303 300 299 297 295 300 303 298 297 297 297 297
324 325 327 328 327 326 326 327 326 324 323 324 322 318 317 313 312 309 308 306 303 301 298 296 296 300 297 297 297 298 297 296
322 323 324 326 326 326 326 326 326 324 324 324 323 320 319 316 313 310 308 306 304 300 297 295 298 301 296 297 298 296 297 297
319 321 321 324 325 325 325 326 326 325 324 324 323 321 319 316 313 310 306 305 302 298 296 296 300 296 296 295 295 295 296 297
321 320 320 322 324 324 325 325 326 325 323 324 322 321 319 315 312 309 307 306 301 298 296 299 295 295 294 294 293 294 295 295
323 322 322 322 323 324 324 324 324 321 323 322 320 319 316 313 311 311 309 309 300 298 297 295 295 294 294 294 296 295 294 294
322 324 324 323 323 321 321 321 322 322 321 318 314 312 309 308 307 307 306 301 299 297 296 295 294 294 294 295 296 294 294 294
320 323 322 321 320 320 319 318 318 317 316 313 311 310 308 306 305 303 302 299 298 296 295 295 294 295 295 297 296 294 294 294
318 320 320 319 318 317 317 316 315 314 312 310 309 308 306 304 301 299 298 298 297 296 295 295 294 298 298 297 294 294 294 294
312 312 312 312 312 315 315 315 314 312 309 308 306 305 304 302 300 299 298 296 296 295 295 294 296 297 298 297 294 293 293 293
306 306 307 308 309 310 311 311 310 308 306 305 304 303 302 300 299 298 297 296 294 294 296 297 296 296 298 294 294 292 292 292
303 302 302 302 303 303 304 305 304 303 302 301 302 301 300 298 297 296 295 295 297 297 296 296 296 297 296 294 294 292 292 292

GFSFLT1_925_thetae_030.txt.gz
Theta_e
328 328 329 325 325 325 325 326 328 330 329 324 321 325 328 330 329 327 324 322 319 319 318 316 314 313 313 312 309 306 306 305
326 328 328 328 328 326 326 326 327 329 328 324 322 326 328 329 329 327 324 321 318 318 317 315 313 313 312 310 307 306 305 304
327 327 326 326 327 328 328 328 328 329 326 323 323 325 327 329 327 326 323 321 319 318 316 314 312 312 310 307 305 304 304 304
329 328 327 326 326 327 328 328 329 328 326 324 326 327 325 326 324 323 323 320 318 316 315 313 312 310 308 306 305 304 306 305
330 331 330 329 328 327 328 328 328 329 328 326 325 326 326 325 323 323 321 318 317 314 313 312 310 306 304 303 303 305 305 306
331 331 331 331 330 329 329 329 329 329 329 327 326 327 327 327 323 321 318 315 313 312 310 308 306 304 303 303 304 304 305 305
331 330 331 331 331 330 330 330 330 329 329 328 328 327 328 325 321 316 314 309 309 308 307 306 305 303 303 304 302 304 304 303
331 332 331 331 331 331 331 331 330 329 329 329 329 328 327 323 319 315 311 310 307 307 305 305 302 301 302 302 302 302 301 302
331 331 331 331 332 332 332 331 331 330 329 328 327 326 324 321 318 313 311 309 307 305 304 303 301 299 301 302 303 301 302 301
326 328 330 330 331 332 332 332 331 331 330 329 328 325 323 320 317 315 313 309 307 305 305 302 301 300 301 303 301 302 300 301
323 324 326 327 329 331 331 332 331 331 331 329 328 326 323 319 317 314 311 309 307 305 303 301 301 297 300 302 301 300 300 301
326 324 324 324 327 329 330 330 330 330 331 330 329 328 322 318 316 314 312 311 308 303 302 300 300 297 302 300 299 299 299 299
326 327 325 325 326 327 328 328 329 329 330 329 329 325 322 320 319 316 313 311 305 302 301 301 297 301 300 298 297 297 298 298
326 328 328 327 327 327 327 328 328 328 327 324 324 323 320 318 315 312 310 306 304 302 301 298 299 297 297 296 297 298 299 297
325 328 329 328 328 327 327 327 326 324 322 322 321 319 318 317 315 311 308 305 302 300 298 297 297 297 296 296 298 297 299 297
326 327 328 327 326 325 324 323 320 319 319 319 318 317 315 314 312 311 308 305 301 298 297 296 297 296 298 298 298 297 298 296
320 320 319 318 319 320 319 318 316 316 315 314 313 312 310 308 306 302 300 298 297 297 296 296 296 298 297 296 297 297 296 296
315 315 315 315 315 315 315 313 313 312 311 310 309 308 306 304 302 299 297 296 296 295 296 297 298 296 296 296 297 296 295 296
312 311 311 310 310 310 310 309 308 308 307 306 306 305 303 301 300 298 296 296 296 297 297 296 296 297 297 296 297 295 295 294

GFSFLT1_925_thetae_033.txt.gz
Theta_e
327 324 324 324 324 323 324 325 324 324 326 326 322 320 322 323 329 329 329 327 325 325 323 321 320 319 317 315 314 310 310 309
327 328 325 325 325 324 324 324 324 326 326 325 321 320 323 327 329 330 329 326 325 324 323 321 320 318 316 315 312 310 308 307
326 327 327 326 326 326 325 325 326 326 325 324 321 321 322 326 329 329 328 327 324 324 323 321 319 317 316 314 310 309 309 308
327 326 328 328 327 327 327 327 327 327 326 325 321 321 324 326 328 329 329 327 325 323 322 321 319 317 315 313 310 309 308 309
328 327 326 327 327 328 328 327 327 327 327 325 322 324 325 327 328 328 328 327 325 323 322 321 318 316 313 312 309 308 308 309
328 328 327 327 327 327 328 328 328 328 328 327 324 326 326 326 327 328 327 327 324 323 321 319 317 315 311 309 307 307 308 309
328 327 328 329 328 328 328 328 327 328 328 329 328 328 327 327 329 328 327 324 321 320 318 316 313 310 308 307 306 306 307 307
328 328 329 329 331 331 330 329 329 328 329 329 329 329 328 328 329 327 324 321 316 314 313 310 309 308 306 305 304 303 305 305
329 328 328 328 329 332 332 331 330 329 330 330 330 330 330 330 329 326 321 316 314 317 318 309 307 306 305 304 301 303 304 304
329 329 329 329 329 331 333 333 332 331 330 331 331 330 330 330 329 326 320 317 316 316 310 308 305 304 303 301 302 302 304 304
325 327 328 329 330 331 334 334 333 332 332 332 332 331 330 329 326 323 317 314 312 310 308 305 304 303 300 301 301 304 303 302
327 326 326 327 330 331 333 334 335 334 333 333 333 331 330 328 325 320 317 314 312 310 308 306 304 302 300 299 301 302 302 302
327 328 326 326 327 329 331 333 333 333 333 333 332 330 329 326 322 319 317 315 315 312 309 305 302 301 301 301 302 300 300 300
327 329 329 328 329 329 330 331 331 331 331 332 332 328 325 323 321 320 318 316 313 311 306 302 301 301 300 302 300 299 300 298
324 329 330 329 329 329 330 330 330 330 330 328 328 326 323 321 319 316 313 311 309 305 302 301 301 299 300 298 298 299 298 298
325 328 330 330 330 330 329 328 327 326 325 325 324 322 321 319 317 315 312 308 305 303 300 300 299 299 298 298 299 297 297 298
327 329 329 328 328 327 325 323 321 321 320 319 318 317 316 314 312 309 307 306 303 300 298 299 298 297 298 297 297 298 297 298
323 322 321 320 320 319 318 317 317 316 315 314 313 312 310 308 306 304 303 301 300 299 298 297 297 298 297 297 297 297 297 296
319 318 316 316 315 315 314 313 313 312 311 311 310 308 307 305 304 302 299 298 298 298 298 298 299 299 297 297 297 297 296 295

GFSFLT1_925_thetae_036.txt.gz
Theta_e
325 324 323 320 317 314 314 315 315 316 314 314 317 320 320 321 321 326 325 326 327 325 325 323 321 320 318 316 315 314 312 310
326 325 324 321 319 318 318 318 320 319 319 320 325 320 321 321 323 327 328 327 327 325 326 323 321 320 318 317 315 311 310 309
326 325 326 324 322 322 324 324 324 323 324 326 325 322 321 322 326 327 326 325 326 325 325 323 322 320 318 316 315 311 310 308
328 327 326 326 325 325 326 326 326 325 326 325 326 322 321 322 328 326 327 328 327 325 324 324 322 320 318 316 314 311 310 309
327 327 328 326 327 326 325 324 325 325 326 326 326 322 321 324 329 329 327 327 328 326 324 323 321 320 319 316 313 310 309 310
326 327 328 329 329 328 327 327 327 327 327 328 327 323 322 323 327 328 329 329 328 326 325 323 321 319 317 315 312 310 308 309
328 327 326 328 328 329 329 328 328 327 328 327 327 325 324 326 328 328 329 327 326 327 324 322 320 318 316 312 310 308 308 309
328 328 327 327 328 328 330 330 329 329 329 330 328 327 326 327 327 329 329 328 327 325 323 320 319 318 317 313 308 307 307 306
329 327 329 329 328 329 329 329 329 329 329 330 330 328 329 330 328 329 328 327 324 323 321 319 318 318 314 311 307 306 304 305
329 328 328 330 330 330 330 330 330 329 329 329 330 331 330 329 321 328 328 324 322 321 318 317 317 313 311 307 306 305 303 305
327 329 329 329 330 332 333 332 332 331 331 331 331 331 330 327 325 329 327 322 320 318 315 316 311 309 308 305 305 303 303 303
327 326 326 328 330 330 334 334 333 333 332 333 332 330 329 323 327 330 325 321 319 315 313 311 309 306 304 304 303 302 302 303
327 328 326 326 327 330 334 335 334 335 335 334 332 331 331 331 330 327 324 321 317 314 311 309 307 305 304 303 301 301 302 302
327 328 328 327 327 328 330 333 335 335 335 334 332 332 331 329 326 323 321 319 316 314 312 309 306 304 303 301 301 300 301 301
324 328 329 329 329 330 330 331 331 332 332 332 330 327 325 325 322 321 319 317 316 314 312 308 305 303 302 301 301 302 300 299
323 329 330 330 330 330 331 331 330 329 329 327 325 323 322 321 319 318 315 312 311 309 306 304 303 301 301 301 300 299 299 298
324 326 331 331 330 330 329 327 326 326 325 323 322 321 320 317 316 314 312 308 306 303 302 301 300 300 300 299 298 298 298 298
327 329 330 330 328 326 324 322 321 320 318 317 316 315 312 310 308 307 306 304 302 300 299 299 298 298 298 298 298 298 298 297
325 323 323 322 321 319 318 318 316 315 314 313 312 310 308 306 304 302 301 300 299 299 298 298 298 298 297 297 297 297 296 297

GFSFLT1_925_thetae_039.txt.gz
Theta_e
321 319 317 316 315 315 314 315 317 317 318 318 316 317 314 314 318 319 320 322 325 324 323 324 322 321 320 318 316 315 313 311
321 319 319 316 316 316 316 316 315 315 314 314 314 315 317 318 320 322 324 325 324 326 324 325 323 322 320 318 316 315 311 311
323 322 318 317 314 314 315 315 314 317 314 314 314 315 320 318 319 320 323 326 325 325 325 325 323 322 320 318 317 313 312 309
324 323 319 317 316 315 314 314 318 316 316 314 315 321 324 319 321 320 323 325 326 324 326 325 323 322 320 319 316 315 312 310
324 325 321 319 319 318 318 318 322 320 318 321 322 324 323 320 320 322 325 326 324 323 326 325 324 322 320 320 316 314 311 309
324 324 325 322 320 320 322 323 322 322 322 323 324 323 324 322 320 321 324 325 325 327 325 324 324 321 321 319 315 312 310 309
325 325 325 325 324 322 323 325 325 323 323 324 326 325 324 321 321 326 326 327 327 327 326 324 323 322 320 317 316 314 313 312
325 325 326 325 325 325 324 324 324 324 325 325 326 326 326 322 320 321 328 328 327 326 327 325 324 322 319 318 316 314 312 309
323 324 325 327 326 326 326 326 326 325 325 326 326 326 327 324 324 326 327 327 326 327 326 326 322 321 320 319 318 314 310 308
323 324 324 325 327 327 328 328 327 327 327 327 327 327 326 327 324 327 326 327 323 325 326 324 322 319 318 317 316 313 308 307
324 323 324 325 325 327 327 327 328 328 327 328 328 329 328 327 329 327 325 323 325 325 322 320 318 316 316 316 313 309 306 304
321 322 323 325 326 326 326 327 327 328 328 327 328 329 330 329 329 327 324 324 326 323 319 318 316 315 315 311 308 306 304 304
320 320 322 323 326 327 327 328 328 324 321 329 329 329 328 328 328 327 325 325 322 321 320 318 315 313 311 308 306 304 303 303
321 322 323 324 325 328 329 331 330 326 324 325 330 330 329 324 326 324 324 323 321 318 316 313 311 310 307 305 305 304 302 302
322 322 323 324 327 329 331 332 332 331 331 331 330 330 329 327 325 323 320 319 318 316 313 311 310 308 306 305 303 301 301 302
322 323 323 325 329 330 329 330 330 330 330 329 327 326 325 323 321 320 319 316 315 315 314 310 308 306 304 303 301 301 301 300
319 325 326 327 328 328 327 327 326 328 326 324 323 322 321 319 318 317 313 311 310 309 306 306 305 304 302 301 301 301 300 298
320 327 327 327 327 326 324 324 323 322 321 320 319 318 317 316 315 312 310 308 305 303 302 302 301 301 301 300 300 299 298 298
325 323 322 324 324 323 322 320 319 318 315 313 312 311 309 308 307 306 305 303 301 300 299 299 299 298 298 298 298 297 297 297

GFSFLT1_925_thetae_042.txt.gz
Theta_e
320 318 317 317 317 317 316 317 318 318 318 317 315 314 315 315 315 316 319 321 323 322 323 323 322 321 320 318 315 314 313 312
319 318 316 316 317 316 316 316 316 316 316 316 316 315 313 314 315 314 315 319 321 323 323 323 324 322 320 319 317 315 314 312
319 318 316 315 316 315 315 315 315 315 316 316 316 315 314 314 315 315 318 320 321 325 325 325 324 322 321 320 319 315 313 311
320 318 317 315 315 314 315 315 315 314 316 316 315 315 316 315 315 316 319 320 324 325 325 325 324 324 321 321 319 316 313 309
321 319 317 315 315 315 315 315 315 316 315 314 313 315 315 317 319 319 318 320 322 324 325 325 325 324 321 321 319 317 316 311
322 321 318 317 314 314 315 315 314 314 316 314 314 314 316 318 321 320 318 319 319 324 326 324 325 324 323 321 320 318 315 312
323 322 320 317 316 314 314 313 313 317 316 316 316 316 319 322 323 321 320 318 321 324 325 323 324 325 323 322 320 317 314 314
324 323 322 319 317 316 315 315 316 318 320 318 317 319 320 322 322 322 321 321 321 323 325 324 325 324 324 322 320 316 314 315
324 323 323 322 318 318 318 318 319 319 320 320 319 320 322 322 322 321 323 322 322 324 325 326 325 324 323 321 320 316 315 315
324 323 323 324 323 320 320 321 322 321 321 320 321 322 322 323 324 322 321 321 320 326 326 325 325 324 323 320 318 316 315 314
322 323 324 324 324 324 323 322 322 323 323 324 323 323 323 324 324 324 322 322 325 326 325 323 322 324 320 315 315 314 314 313
321 321 323 324 325 325 324 324 324 324 324 324 324 324 324 325 325 324 325 325 324 325 323 323 321 321 316 316 315 315 313 310
319 320 321 323 323 324 326 325 326 326 325 326 326 326 327 326 326 326 325 324 324 318 321 322 320 317 315 314 314 312 310 306
318 317 319 321 322 323 323 325 326 326 327 327 328 327 327 328 328 328 326 325 324 320 317 318 318 316 314 313 310 309 307 305
319 318 319 320 323 324 324 324 326 326 327 325 327 325 326 328 328 325 322 325 322 320 319 318 317 315 312 310 307 306 304 303
319 320 319 321 326 329 330 326 326 326 326 324 323 325 324 327 325 323 323 323 321 319 318 315 313 311 309 307 306 304 303 302
318 321 321 325 326 326 328 329 329 329 328 328 326 324 323 322 322 322 320 318 317 314 312 311 308 307 307 305 304 302 301 301
313 321 323 325 326 325 325 326 327 325 324 322 320 320 318 318 318 317 315 312 311 310 309 307 306 305 304 302 302 301 301 300
318 322 323 325 324 322 322 323 322 320 318 318 318 316 313 312 311 309 308 307 308 305 303 303 303 302 301 301 301 300 298 297

GFSFLT1_925_thetae_045.txt.gz
Theta_e
320 319 318 318 318 318 318 319 321 320 320 321 320 322 321 322 322 322 322 322 323 323 323 323 321 320 320 319 317 315 314 312
320 318 317 317 317 317 317 317 317 318 319 320 319 321 317 316 317 318 321 321 323 324 324 324 323 322 321 320 319 316 313 311
318 317 316 316 316 316 316 317 318 318 317 317 318 317 316 316 315 315 317 318 319 321 322 322 323 322 321 320 318 315 313 311
320 317 315 315 316 316 316 316 317 317 317 317 317 317 315 314 315 315 315 315 315 318 321 322 323 323 323 320 318 316 315 312
320 318 316 314 315 316 316 316 316 316 316 316 316 316 315 314 313 313 313 314 315 319 322 323 324 324 323 322 319 318 317 313
321 318 318 315 315 316 315 316 316 316 315 315 315 314 314 314 314 314 315 314 315 318 320 325 325 325 324 324 320 318 317 314
323 320 318 316 315 315 315 314 315 315 314 314 314 314 314 314 315 316 316 316 316 318 319 320 322 324 325 324 323 320 319 315
323 321 319 317 315 314 314 314 314 314 314 314 314 314 314 314 315 316 317 317 318 318 319 319 321 324 324 323 323 321 320 318
322 322 321 319 316 313 314 314 314 314 314 315 315 315 314 314 315 317 318 318 319 319 320 319 320 324 324 323 322 321 320 318
323 322 322 320 318 315 313 314 313 314 314 316 315 315 315 316 316 317 319 319 321 321 322 322 322 323 319 320 323 319 320 319
323 323 322 322 320 317 315 314 314 314 314 314 318 318 317 316 318 320 321 321 321 320 322 324 324 322 324 324 322 321 318 316
321 323 322 323 322 320 317 316 315 315 316 317 318 318 319 319 320 320 322 323 322 322 322 324 324 323 323 320 319 318 315 312
321 320 322 322 322 323 321 318 318 318 319 319 320 320 320 321 321 322 323 323 324 323 323 323 318 317 319 319 318 314 312 311
316 318 318 321 323 323 323 323 322 321 321 321 322 322 323 323 323 323 323 323 323 324 323 324 320 315 317 317 314 313 313 312
314 315 318 320 321 322 323 323 323 323 323 323 323 324 324 324 324 324 323 323 323 324 322 319 318 315 316 313 313 312 310 309
316 316 316 316 319 320 321 322 324 324 324 325 324 324 325 325 325 326 324 323 323 323 322 319 318 316 314 312 312 310 307 305
314 316 316 318 320 322 322 321 322 323 324 325 325 325 325 326 326 326 325 323 322 321 318 317 313 313 314 311 309 306 304 303
312 314 318 319 323 325 326 327 325 324 324 324 323 323 323 323 322 321 320 317 316 315 314 313 312 311 309 308 306 305 303 302
311 311 316 321 325 325 325 325 327 326 324 324 323 322 320 318 317 315 314 314 314 313 311 311 310 307 306 305 303 302 301 300

GFSFLT1_925_thetae_048.txt.gz
Theta_e
320 320 319 319 320 321 321 321 321 322 321 322 322 320 321 319 320 318 317 317 316 317 317 316 316 314 315 317 315 313 312 310
319 319 319 319 319 319 320 320 320 319 319 320 322 321 321 317 317 320 318 317 317 318 319 320 317 316 317 318 317 315 314 312
320 318 318 318 318 318 318 319 319 320 319 319 320 322 321 321 321 322 321 321 322 322 322 322 323 321 321 321 319 317 314 312
320 318 316 317 317 317 318 318 319 320 319 320 319 319 320 319 316 316 318 321 320 319 320 322 322 323 322 322 320 318 317 312
319 318 316 315 315 317 317 317 318 318 318 318 318 318 319 318 316 315 314 315 316 316 316 319 321 321 322 322 321 319 317 314
320 318 317 315 314 315 317 317 317 317 317 317 317 317 317 317 316 315 314 314 314 314 314 316 319 322 322 323 323 320 316 314
321 319 317 314 314 315 315 316 316 317 317 316 316 315 315 316 316 316 314 313 313 313 313 314 317 319 323 324 324 323 320 316
321 319 317 315 314 314 315 315 315 316 316 316 316 316 316 315 315 315 315 315 314 313 315 315 316 318 319 322 323 323 321 319
322 320 318 316 314 314 314 314 314 315 315 315 315 315 314 315 314 314 314 314 315 315 316 316 316 317 319 320 322 322 321 320
321 321 319 317 316 314 314 314 314 314 315 315 314 314 313 313 313 314 314 315 316 316 316 316 316 318 321 321 322 321 318 319
321 321 320 319 317 316 315 315 315 314 314 314 314 314 314 314 314 314 314 314 315 316 315 315 319 321 321 322 322 320 318 318
320 320 321 321 320 316 315 314 314 314 314 314 314 315 315 315 315 315 315 315 314 315 317 319 321 321 322 322 322 320 319 316
318 320 321 321 321 319 317 315 313 314 313 313 314 315 316 316 316 315 317 317 318 317 319 320 321 321 322 322 321 319 317 315
316 317 320 320 321 321 319 317 316 315 314 314 315 315 316 317 318 317 318 318 318 318 319 320 321 322 321 319 317 316 316 315
312 315 317 320 321 321 321 320 318 317 316 316 316 317 317 317 318 318 318 319 320 320 321 321 321 321 322 321 318 314 313 311
312 312 315 316 319 320 321 322 321 320 319 318 318 319 319 319 319 319 320 321 322 322 322 321 321 320 320 319 316 314 311 309
311 313 313 313 316 318 320 321 322 322 322 321 320 320 320 321 321 321 322 322 322 322 322 322 320 319 318 316 316 312 309 308
311 311 314 314 315 317 318 319 320 322 322 322 322 322 322 322 322 323 323 322 322 322 322 320 317 316 316 314 311 310 308 305
311 309 310 316 318 318 319 320 319 320 321 322 323 323 322 322 322 321 320 320 319 319 317 314 313 312 309 308 307 305 304 302

GFSFLT1_925_thetae_051.txt.gz
Theta_e
321 321 320 321 321 322 323 322 321 320 320 320 320 321 319 317 317 321 320 316 315 314 314 313 314 316 315 314 311 310 309 308
321 320 320 320 320 320 322 322 321 321 320 320 319 321 319 318 318 321 321 317 316 315 315 314 314 314 316 316 313 312 310 308
321 320 319 320 320 320 320 321 321 320 321 320 320 320 319 319 320 321 320 317 317 316 316 316 315 314 314 316 316 314 314 311
322 320 319 319 319 320 319 320 321 321 320 320 320 319 318 317 319 320 318 317 316 316 317 319 319 318 317 317 318 317 316 313
323 321 319 319 319 319 319 319 319 320 319 320 319 319 319 317 316 318 321 321 319 320 321 321 321 321 321 322 321 320 318 317
324 323 320 319 319 319 318 319 320 319 319 319 319 320 319 319 317 315 316 319 319 320 318 319 319 319 321 321 321 321 320 318
324 322 321 319 317 316 317 318 319 319 320 319 319 318 318 318 317 316 317 315 316 315 315 315 315 315 318 321 322 321 321 319
324 323 321 319 316 314 316 317 318 319 318 318 318 318 318 317 317 317 316 315 314 313 313 314 314 314 314 317 320 322 322 322
324 324 321 318 316 315 316 316 318 318 318 317 317 317 317 317 317 317 317 316 316 315 314 314 314 314 315 316 318 319 320 320
324 324 322 320 318 317 316 317 317 317 317 317 317 316 316 316 316 315 315 316 316 316 316 315 315 315 316 317 317 319 320 321
323 324 323 321 320 318 317 317 317 318 317 317 317 317 316 316 315 315 315 316 316 316 315 315 316 316 316 317 319 320 321 321
323 324 323 322 321 319 317 317 317 317 317 317 317 316 316 315 315 316 317 316 315 314 314 316 316 317 317 318 319 320 321 320
321 323 323 322 321 320 318 317 317 316 316 316 316 316 315 315 315 315 315 314 314 315 316 316 317 318 317 317 319 321 321 320
319 321 323 323 322 321 319 318 317 317 316 316 315 315 315 315 315 315 315 315 316 316 317 317 317 317 318 318 320 320 319 320
315 319 322 323 323 323 321 319 317 317 316 315 315 315 316 316 316 316 316 316 316 317 317 318 318 318 319 319 318 319 319 317
314 316 319 321 322 322 322 322 319 317 316 316 316 316 315 316 317 317 317 317 317 318 318 319 320 320 319 320 319 318 317 316
316 314 315 318 319 321 322 322 321 319 318 317 317 316 317 316 316 317 317 318 318 319 319 319 320 319 320 321 320 317 316 313
317 316 314 316 316 318 321 322 322 321 320 320 319 318 318 318 319 318 318 319 320 321 321 321 321 320 321 321 317 315 313 308
317 316 316 315 316 317 318 320 321 321 322 322 321 321 320 321 321 321 321 321 321 321 321 321 320 319 318 314 311 310 307 305

GFSFLT1_925_thetae_057.txt.gz
Theta_e
328 327 326 328 327 325 325 323 322 322 322 322 322 322 321 322 322 322 320 319 318 317 317 318 317 317 317 318 318 318 317 317
328 327 326 327 327 326 326 323 322 322 321 321 321 321 322 321 321 319 319 318 318 315 317 318 319 318 318 318 317 317 316 316
329 328 326 327 326 326 324 323 322 322 322 321 321 321 320 320 321 322 319 320 319 315 317 318 319 319 320 320 319 318 316 315
331 329 328 326 327 326 324 322 322 322 321 323 321 320 320 319 318 320 322 323 320 318 318 319 319 321 322 322 322 321 320 318
331 330 329 327 326 326 325 323 322 323 321 321 321 320 319 319 318 317 318 322 322 317 320 321 321 320 322 324 323 323 322 321
332 331 329 328 327 326 325 322 323 322 322 321 321 321 320 318 318 317 319 321 320 321 320 322 322 322 322 322 323 324 323 323
331 330 329 329 327 327 325 324 322 322 322 322 321 320 320 319 318 318 320 321 322 321 322 322 323 324 324 323 323 324 324 324
331 331 331 329 328 327 325 324 324 322 321 321 322 322 320 320 319 319 318 321 322 323 323 322 323 324 324 323 324 324 325 324
330 332 332 330 329 327 326 324 324 323 322 322 322 322 321 321 320 320 319 319 320 322 323 323 324 325 325 324 322 323 321 323
329 330 331 330 330 329 327 325 324 324 323 322 322 322 321 321 321 321 321 320 320 320 322 323 323 323 324 324 325 324 323 323
327 329 330 330 330 329 328 326 324 325 324 323 323 322 322 322 322 323 323 321 320 321 321 322 322 322 323 322 322 322 322 323
325 326 328 330 330 330 329 327 325 324 325 325 324 324 325 324 324 324 324 323 322 321 321 321 321 321 321 321 321 321 321 322
324 326 328 329 330 330 329 328 326 324 324 326 326 327 326 326 325 326 325 325 324 323 321 321 321 321 321 322 322 322 322 322
322 323 328 330 330 330 330 329 327 326 325 325 327 327 327 327 327 327 327 326 325 324 323 323 322 322 322 322 322 322 322 322
321 322 323 328 329 329 330 329 329 328 327 326 326 327 327 327 327 327 326 326 326 325 324 323 323 323 322 322 322 322 322 322
321 322 322 323 326 328 329 329 329 329 328 327 327 327 327 326 326 326 326 325 325 324 324 324 324 323 323 322 321 321 321 321
321 322 322 322 322 323 327 328 329 329 329 329 328 327 327 326 326 326 326 325 325 325 324 324 324 323 322 321 321 322 321 321
321 322 322 322 322 322 322 325 328 329 329 329 328 328 327 327 327 326 326 325 325 324 324 324 323 323 322 321 321 321 322 323
321 321 320 319 320 321 321 321 323 327 328 328 328 328 328 327 327 326 326 325 325 324 324 324 324 323 323 322 321 321 321 322

GFSFLT1_925_thetae_060.txt.gz
Theta_e
328 327 327 330 328 327 325 324 324 324 323 324 324 325 323 321 320 319 318 322 322 323 321 320 321 322 321 320 319 318 318 319
329 328 326 329 327 326 325 324 323 323 323 322 323 322 322 321 319 321 323 322 321 318 317 318 318 319 318 319 319 319 319 317
330 329 327 328 328 326 326 324 322 322 322 322 322 322 322 321 321 321 320 320 320 317 317 317 317 319 318 318 318 318 318 317
331 331 328 328 328 327 326 324 323 322 322 321 321 321 320 319 321 320 319 317 317 317 317 316 317 320 318 318 317 318 317 316
332 331 330 327 328 326 324 324 323 323 322 322 321 321 320 318 321 320 320 319 317 316 319 316 314 319 321 321 319 320 319 318
332 331 330 329 328 326 324 323 323 323 323 322 322 321 320 317 319 321 320 319 321 319 318 321 318 314 320 323 323 321 322 323
331 331 330 330 327 327 325 324 323 323 322 323 322 321 320 318 318 317 318 320 322 321 318 319 322 322 319 322 323 324 323 324
331 332 331 331 329 328 326 324 323 323 322 322 322 322 321 320 318 317 316 317 321 321 320 319 322 322 322 322 323 323 324 323
329 331 332 331 330 330 326 325 322 323 323 322 322 322 322 321 319 317 317 317 320 320 321 319 319 323 322 324 323 323 323 324
329 331 332 331 331 329 328 326 325 322 322 323 322 322 321 321 320 319 318 317 319 322 322 321 320 322 323 324 324 323 322 323
328 329 332 331 331 330 329 327 325 325 323 322 322 322 323 322 321 321 320 319 318 319 321 322 322 322 323 325 325 322 323 323
325 328 329 332 332 331 330 328 326 325 324 323 322 322 322 323 322 323 321 321 321 320 320 321 322 324 324 325 324 323 323 323
325 325 328 330 332 332 331 329 328 326 326 325 323 322 322 323 323 323 323 323 322 321 320 321 321 321 322 323 323 323 323 323
322 323 328 329 331 331 332 331 329 328 327 327 326 324 324 324 323 323 323 323 324 323 322 321 321 322 322 322 322 322 322 322
322 323 323 323 329 330 331 332 330 329 328 327 328 327 326 325 326 325 325 326 325 325 325 323 322 322 322 322 322 322 322 322
321 322 322 323 323 323 328 331 332 330 329 328 327 328 328 328 327 327 327 327 327 326 326 325 325 324 322 322 322 322 322 322
320 321 322 321 321 321 321 323 330 332 331 329 329 327 328 328 328 328 328 328 327 328 327 326 326 325 324 324 323 323 323 322
320 320 320 320 320 320 321 321 321 326 332 331 330 329 328 328 328 328 328 328 328 327 327 327 326 326 325 325 324 323 323 323
318 317 317 318 319 319 319 321 322 322 324 330 331 331 330 329 329 328 327 327 327 327 326 326 325 325 325 324 324 323 322 321

GFSFLT1_925_thetae_063.txt.gz
Theta_e
325 328 330 330 327 326 325 325 325 326 327 326 326 326 325 323 322 320 320 320 321 325 325 320 323 322 322 321 320 319 320 320
325 328 329 328 327 327 325 323 324 324 325 324 325 325 323 323 321 320 323 320 324 325 324 323 323 324 323 321 319 318 319 320
325 328 328 327 326 326 325 323 322 321 321 323 323 323 323 322 321 320 323 322 321 322 322 322 321 323 321 319 319 319 319 319
326 326 327 326 325 326 325 323 322 321 322 322 322 322 321 321 321 320 321 320 319 320 318 321 320 320 319 319 319 319 318 318
327 325 325 326 325 326 325 324 321 321 322 322 321 321 321 320 320 320 320 320 320 317 318 318 318 318 318 318 318 317 317 317
328 326 325 326 326 326 324 323 322 322 321 321 321 320 320 320 320 320 319 320 320 319 318 316 316 317 317 319 316 315 317 317
328 327 326 326 326 325 324 324 323 323 322 321 321 320 319 318 320 320 320 318 318 317 315 316 315 315 319 322 318 318 318 319
328 328 326 325 325 324 323 323 323 323 322 322 321 320 319 317 319 320 320 321 320 317 316 318 319 317 315 320 322 322 320 320
328 328 327 326 326 324 323 322 323 323 322 322 321 321 319 318 317 319 319 319 320 320 318 316 318 320 321 319 317 322 322 322
329 328 328 327 326 325 324 323 323 323 323 322 322 322 320 319 317 317 318 317 318 320 320 320 317 317 321 322 322 321 323 323
328 328 327 328 327 326 324 323 322 322 323 322 322 322 322 321 320 318 317 316 316 317 319 320 321 319 317 322 323 322 322 322
321 328 328 329 328 327 325 324 323 322 321 322 323 322 322 321 321 319 318 317 316 316 317 320 321 321 320 319 322 322 322 323
320 320 322 328 328 328 326 325 324 323 322 321 321 322 322 322 321 321 320 319 318 317 316 318 320 321 321 321 321 323 323 323
319 320 320 321 324 328 328 326 325 324 323 322 322 322 321 322 322 322 321 321 320 319 318 317 318 319 320 321 322 322 323 323
319 319 319 319 319 320 324 328 327 325 325 323 323 322 321 321 321 321 322 321 321 321 320 320 319 319 319 319 320 322 323 323
319 318 317 318 318 319 320 320 322 328 326 325 324 323 323 322 321 321 322 321 322 322 322 321 321 320 320 320 320 320 320 321
317 316 316 317 316 315 314 315 316 320 328 327 326 326 324 324 323 323 323 322 322 323 322 323 323 322 321 320 320 320 320 320
315 314 314 313 309 308 307 309 312 315 319 322 327 327 326 326 325 325 324 325 325 324 324 324 324 324 324 323 322 321 321 320
311 311 310 307 303 303 303 306 307 311 309 310 313 318 322 326 326 327 327 326 326 326 325 325 326 326 325 325 324 324 321 321

GFSFLT1_925_thetae_066.txt.gz
Theta_e
324 329 329 328 327 326 327 328 329 328 327 327 326 326 327 326 325 325 326 327 327 325 318 315 311 311 318 319 319 318 318 321
326 328 328 327 326 326 326 326 328 328 327 327 326 326 325 325 325 324 325 324 324 325 320 316 315 314 316 320 320 320 320 320
326 327 326 325 325 325 324 325 325 326 325 325 325 326 325 324 324 323 323 323 322 323 324 319 321 318 319 318 320 318 319 320
326 327 326 325 325 324 324 324 325 324 324 324 323 323 322 323 322 321 322 322 321 324 324 323 322 323 321 322 320 318 318 319
326 327 325 324 324 325 324 323 322 322 321 322 322 321 321 321 321 321 321 321 322 323 324 323 321 323 323 322 319 318 318 318
326 327 326 325 324 324 323 323 322 321 322 321 321 322 321 321 321 321 321 322 320 321 320 322 320 322 321 320 319 318 318 318
324 325 326 324 324 324 323 322 322 321 321 322 321 321 321 320 320 319 320 320 319 318 318 320 319 319 319 319 318 318 317 316
325 324 325 324 323 323 322 322 322 321 321 321 321 320 320 319 320 320 320 319 318 317 317 318 320 318 317 319 317 317 314 314
326 324 324 325 324 322 322 322 322 322 322 321 321 320 319 319 319 319 319 319 319 320 317 318 317 317 318 318 320 317 314 314
327 325 324 324 323 322 322 322 322 322 322 321 320 320 319 318 318 319 319 320 319 319 318 316 315 316 315 314 316 321 321 320
327 326 325 324 324 323 322 322 322 322 322 322 321 320 320 319 318 318 318 318 319 320 319 317 316 317 318 320 320 318 318 318
325 326 326 326 325 323 323 322 321 322 322 322 322 321 321 320 319 318 317 318 318 318 319 320 319 317 317 317 319 321 322 322
320 322 324 326 326 324 323 322 321 321 322 322 322 322 322 322 321 319 318 316 317 317 317 318 319 319 319 319 318 318 321 322
318 318 319 319 320 326 325 324 323 322 321 321 321 322 322 322 321 321 320 319 317 316 316 315 316 319 320 320 319 319 319 320
317 317 318 317 316 316 316 318 319 322 323 321 320 321 321 321 321 321 321 320 320 318 318 317 316 315 317 319 320 320 319 319
317 316 313 311 309 309 309 310 312 315 323 323 322 321 321 321 321 321 321 321 321 320 320 319 318 317 316 316 317 318 319 319
314 312 309 306 305 304 305 306 308 312 311 311 319 323 322 322 321 320 320 321 321 321 320 320 320 319 319 318 317 317 318 318
311 307 303 300 299 300 301 302 304 304 304 304 306 308 314 321 322 322 321 320 321 321 321 321 320 320 320 320 320 319 319 319
305 302 299 297 296 296 297 298 298 298 299 300 302 304 308 307 309 314 322 322 322 321 321 321 321 321 321 322 321 320 318 319

GFSFLT1_925_thetae_069.txt.gz
Theta_e
325 327 329 330 329 328 328 332 328 327 329 328 327 326 326 325 327 328 328 327 327 325 321 318 317 317 317 315 312 317 317 320
325 327 327 328 327 327 327 327 326 327 328 327 326 326 325 325 327 327 327 327 327 325 320 316 316 315 313 312 315 317 317 320
327 326 325 325 325 326 327 328 325 327 327 326 326 325 325 325 326 326 324 325 327 324 322 316 313 311 314 315 316 317 318 320
328 327 325 325 324 324 326 327 327 326 327 326 326 325 324 324 324 324 324 324 326 324 323 318 315 312 316 317 318 318 318 319
327 326 325 324 324 324 325 324 325 326 326 325 325 325 324 324 323 323 323 324 325 325 324 320 318 315 317 318 319 319 319 318
326 326 325 324 324 322 323 324 324 324 325 325 324 323 322 322 323 322 322 322 322 322 322 323 318 319 317 318 318 319 319 319
324 326 325 324 323 322 322 322 323 323 323 322 322 321 320 321 321 321 321 322 322 321 321 323 322 321 321 319 320 319 318 318
324 325 324 323 323 322 321 321 321 322 322 321 321 321 320 320 321 321 321 321 321 321 321 320 321 321 321 322 320 319 317 318
324 325 324 323 323 322 321 321 321 321 321 321 321 321 321 319 320 320 321 321 320 320 319 319 321 321 321 321 321 320 319 318
323 325 324 323 323 322 321 321 321 320 320 320 321 321 321 320 319 320 320 320 320 318 318 318 320 319 319 318 319 319 318 317
323 324 324 324 323 322 321 321 321 320 321 320 320 320 320 320 319 319 319 320 319 318 318 317 318 319 320 319 318 317 318 317
324 323 322 323 322 321 321 321 321 320 320 320 320 320 320 319 319 318 319 319 319 319 319 318 318 318 318 318 317 316 316 318
323 323 323 323 323 322 322 321 321 321 321 321 320 321 320 320 319 318 318 319 318 318 319 319 319 318 317 318 319 319 319 318
317 316 316 317 321 323 322 322 322 321 321 321 321 321 321 321 320 320 319 319 318 318 318 317 318 319 319 318 317 317 318 319
313 311 310 309 310 311 311 311 313 314 319 321 321 321 321 321 321 321 320 320 319 318 318 317 316 316 318 319 319 318 318 317
308 307 305 304 304 305 305 306 307 309 315 315 317 320 321 321 321 321 321 320 320 319 319 318 317 316 315 315 317 318 318 318
305 302 301 300 299 300 301 301 301 302 303 304 306 311 314 318 320 321 321 320 320 320 319 319 318 318 318 317 316 315 316 317
302 300 298 297 296 297 297 296 297 298 298 299 300 302 304 305 307 311 317 320 320 320 320 320 320 320 319 319 319 317 316 316
298 297 295 294 293 294 294 294 294 295 295 296 295 295 296 298 300 302 303 305 308 312 319 320 320 320 320 320 320 319 317 316

GFSFLT1_925_thetae_072.txt.gz
Theta_e
325 326 328 329 331 330 331 328 331 329 326 329 328 326 327 327 327 326 325 328 327 328 326 325 323 322 321 317 317 319 320 320
324 326 328 329 330 329 329 327 327 326 327 326 326 326 326 326 326 327 326 326 327 327 325 324 322 320 319 317 315 317 318 319
324 325 326 327 327 328 328 325 326 326 326 325 326 325 324 324 326 327 326 326 326 326 325 322 320 319 318 318 315 316 318 319
325 325 326 326 326 325 326 324 325 326 326 324 324 325 325 324 324 325 327 326 326 326 324 320 318 317 316 317 315 316 318 319
325 325 325 326 325 324 325 323 323 325 326 324 324 324 324 324 324 324 324 325 326 326 324 322 316 315 314 314 313 317 317 318
325 325 325 325 325 323 323 325 323 324 324 326 326 325 323 323 323 324 324 323 325 325 325 324 317 313 312 312 314 317 317 318
323 324 325 325 324 322 323 323 321 321 322 325 325 324 323 323 323 323 323 323 323 325 324 322 319 316 312 314 316 317 318 318
323 325 325 325 323 322 322 321 320 321 323 324 323 323 322 321 321 321 322 322 321 322 324 323 323 321 318 315 317 318 319 319
323 325 324 324 322 322 322 321 320 322 322 322 321 321 321 321 320 321 321 321 321 321 321 321 321 321 321 319 319 317 319 319
321 324 323 324 323 321 321 321 320 320 321 321 321 321 320 319 319 320 321 321 321 321 321 321 321 322 321 321 321 320 318 318
324 324 324 323 323 321 321 320 320 320 320 320 320 321 320 320 320 320 319 320 321 319 320 320 320 320 320 321 321 321 321 320
323 324 323 323 322 321 320 320 320 319 319 319 320 320 320 320 319 319 319 319 319 319 318 318 318 319 320 320 320 320 319 319
322 322 322 321 321 321 320 320 320 319 320 319 319 319 319 319 319 318 318 319 319 319 318 318 318 317 318 319 319 318 318 318
311 313 314 317 320 320 320 320 320 320 320 319 319 319 319 320 319 319 319 319 318 319 318 319 319 318 317 317 318 319 318 318
307 307 307 308 309 308 309 308 310 315 320 321 320 319 320 320 321 320 320 319 319 318 318 318 318 318 318 319 318 317 318 318
304 304 303 303 302 302 301 301 302 306 310 311 312 316 320 320 321 321 321 321 320 319 319 318 318 318 318 317 317 318 318 317
301 300 299 299 298 297 297 298 298 300 300 301 303 306 309 312 314 314 319 320 321 321 320 319 318 317 316 316 316 316 316 317
299 297 295 295 295 295 294 295 295 296 295 295 296 297 298 300 302 305 307 310 312 313 317 318 319 319 319 319 318 316 315 316
296 294 292 292 293 292 292 293 293 292 291 290 291 292 293 294 296 297 298 300 301 303 305 305 306 305 307 310 313 315 316 316

GFSFLT1_925_thetae_075.txt.gz
Theta_e
326 327 328 329 329 330 328 328 328 327 326 326 328 327 327 327 326 327 327 327 327 327 326 325 326 321 319 319 320 320 321 320
322 326 328 328 329 328 328 327 327 326 327 325 327 327 327 327 327 326 325 325 327 327 326 326 325 322 320 319 319 320 320 320
322 327 328 328 328 328 328 328 327 327 326 326 325 325 325 326 326 326 327 326 325 326 325 325 324 322 320 318 318 320 320 319
320 327 328 328 327 328 328 327 327 326 325 325 325 324 324 324 325 326 325 325 324 326 325 324 322 320 320 318 317 318 319 319
317 327 328 328 328 328 326 325 326 325 324 325 325 324 324 324 324 326 325 325 325 326 325 324 322 319 319 318 317 317 318 319
320 326 327 328 328 327 325 325 325 324 324 325 324 324 325 323 324 324 325 325 326 326 325 323 321 318 317 317 316 316 318 320
320 325 326 327 327 325 322 324 324 324 323 325 325 324 323 323 323 323 324 324 324 325 325 324 319 316 317 317 317 317 317 319
324 327 327 327 326 323 322 323 322 323 323 324 325 324 324 323 323 323 323 323 323 324 324 324 322 320 315 314 314 315 316 317
324 327 327 326 325 322 323 322 321 320 321 322 324 324 323 323 322 322 322 322 322 323 323 324 322 319 319 315 313 312 313 317
319 326 327 326 324 322 322 321 320 319 320 321 321 321 321 321 321 320 321 321 322 321 323 321 322 322 320 317 314 316 316 317
323 326 325 325 322 321 321 322 322 320 319 322 322 321 321 320 320 319 320 321 321 321 320 321 322 322 322 321 319 318 318 317
325 324 324 323 322 321 321 321 321 321 320 320 321 320 320 320 320 320 320 319 320 321 321 320 320 321 321 321 321 321 320 318
321 324 323 322 321 321 321 320 320 320 320 319 319 319 319 318 319 320 320 319 319 319 319 319 319 320 320 319 319 320 320 320
309 311 312 315 317 317 315 317 319 319 319 319 319 319 318 319 318 318 318 319 319 318 318 318 318 319 320 319 320 320 319 319
305 305 305 305 305 305 306 308 310 318 320 320 318 319 319 319 319 319 318 318 319 319 319 319 319 319 318 318 318 319 319 319
301 300 301 301 301 302 302 302 303 305 306 306 307 311 316 319 319 319 320 320 319 318 318 318 319 319 319 319 318 318 318 319
298 297 297 297 297 298 298 298 297 299 297 297 298 300 303 305 308 312 315 316 316 318 317 317 317 315 313 316 317 318 318 318
297 295 295 294 294 295 295 294 294 293 293 293 293 295 296 297 298 301 303 304 306 306 306 307 307 304 303 307 311 313 314 316
294 293 293 292 293 293 292 291 291 291 290 290 291 293 293 294 295 296 297 299 298 297 297 297 296 294 296 299 304 308 309 311